This is the latest recevied weather packets stored in our database for station/object K0SNA. If no packets are shown the sender has not sent any weather packets the latest 10 day(s).
| Time | Temp. | Humidity | Pressure | Rain* | Wind** | Luminosity | Snow |
|---|---|---|---|---|---|---|---|
| 1778111450 | 7.22° C | 46% | 1015.9 hPa | 0 mm | - | 41 W/m² | - |
| 1778111148 | 7.22° C | 47% | 1015.8 hPa | 0 mm | - | 47 W/m² | - |
| 1778110845 | 7.22° C | 47% | 1016 hPa | 0 mm | - | 54 W/m² | - |
| 1778110542 | 7.22° C | 47% | 1015.9 hPa | 0 mm | - | 63 W/m² | - |
| 1778110239 | 7.22° C | 47% | 1016 hPa | 0 mm | - | 66 W/m² | - |
| 1778109935 | 7.22° C | 47% | 1016.1 hPa | 0 mm | - | 73 W/m² | - |
| 1778109631 | 7.22° C | 47% | 1016 hPa | 0 mm | - | 83 W/m² | - |
| 1778109328 | 7.22° C | 47% | 1015.9 hPa | 0 mm | - | 91 W/m² | - |
| 1778109026 | 7.22° C | 47% | 1016.1 hPa | 0 mm | - | 90 W/m² | - |
| 1778108722 | 7.22° C | 47% | 1016 hPa | 0 mm | - | 105 W/m² | - |
| 1778108420 | 7.22° C | 47% | 1016 hPa | 0 mm | - | 110 W/m² | - |
| 1778108117 | 7.22° C | 46% | 1016 hPa | 0 mm | - | 122 W/m² | - |
| 1778107813 | 7.22° C | 47% | 1016.1 hPa | 0 mm | - | 133 W/m² | - |
| 1778107510 | 7.78° C | 46% | 1015.9 hPa | 0 mm | - | 135 W/m² | - |
| 1778107207 | 7.78° C | 47% | 1016 hPa | 0 mm | - | 132 W/m² | - |
| 1778106902 | 7.22° C | 48% | 1016.1 hPa | 0 mm | - | 137 W/m² | - |
| 1778106599 | 7.22° C | 48% | 1016.1 hPa | 0 mm | - | 141 W/m² | - |
| 1778106296 | 7.22° C | 47% | 1016 hPa | 0 mm | - | 136 W/m² | - |
| 1778105993 | 7.22° C | 48% | 1016.1 hPa | 0 mm | - | 150 W/m² | - |
| 1778105690 | 7.78° C | 47% | 1016.1 hPa | 0 mm | - | 170 W/m² | - |
| 1778105388 | 7.22° C | 47% | 1016.2 hPa | 0 mm | - | 150 W/m² | - |
| 1778105083 | 7.22° C | 48% | 1016 hPa | 0 mm | - | 193 W/m² | - |
| 1778104779 | 7.22° C | 48% | 1016.1 hPa | 0 mm | - | 151 W/m² | - |
| 1778104476 | 6.67° C | 48% | 1016.4 hPa | 0 mm | - | 143 W/m² | - |
| 1778104172 | 7.22° C | 48% | 1016.4 hPa | 0 mm | - | 159 W/m² | - |
* Rain latest hour (hover to see other rain measurements)
** Current wind speed in m/s (hover to see current wind gust speed)